Time,TemperatureF,DewpointF,PressureIn,WindDirection,WindDirectionDegrees,WindSpeedMPH,WindSpeedGustMPH,Humidity,HourlyPrecipIn,Conditions,Clouds,dailyrainin,SoftwareType,DateUTC
2013-05-12 00:01:00,65.2,62.8,29.73,NNE,18,0.0,0.0,92,0.00,,SCT100,0.00,VWS V14.01,2013-05-12 04:01:00,
2013-05-12 00:06:00,65.0,62.6,29.72,WNW,295,0.0,0.0,92,0.00,,SCT100,0.00,VWS V14.01,2013-05-12 04:06:00,
2013-05-12 00:12:00,64.8,62.7,29.73,West,271,0.0,0.0,93,0.00,,SCT100,0.00,VWS V14.01,2013-05-12 04:12:00,
2013-05-12 00:16:00,64.6,62.5,29.74,SW,236,0.0,0.0,93,0.00,,SCT100,0.00,VWS V14.01,2013-05-12 04:16:00,
2013-05-12 00:22:00,64.4,62.6,29.73,SW,236,0.0,0.0,94,0.00,,SCT100,0.00,VWS V14.01,2013-05-12 04:22:00,
2013-05-12 00:27:00,64.3,62.5,29.73,SW,236,0.0,0.0,94,0.00,,SCT100,0.00,VWS V14.01,2013-05-12 04:27:00,
2013-05-12 00:32:00,64.2,62.4,29.73,SW,236,0.0,0.0,94,0.00,,SCT100,0.00,VWS V14.01,2013-05-12 04:32:00,
2013-05-12 00:37:00,64.1,62.6,29.72,SW,236,0.0,0.0,95,0.00,,SCT100,0.00,VWS V14.01,2013-05-12 04:37:00,
2013-05-12 00:42:00,64.1,62.6,29.72,SW,236,0.0,0.0,95,0.00,,SCT050,0.00,VWS V14.01,2013-05-12 04:42:00,
2013-05-12 00:47:00,63.9,62.4,29.73,SW,236,0.0,0.0,95,0.00,,SCT050,0.00,VWS V14.01,2013-05-12 04:47:00,
2013-05-12 00:52:00,63.8,62.3,29.73,SW,236,0.0,0.0,95,0.00,,SCT050,0.00,VWS V14.01,2013-05-12 04:52:00,
2013-05-12 00:57:00,63.6,62.2,29.73,SW,236,0.0,0.0,95,0.00,,SCT050,0.00,VWS V14.01,2013-05-12 04:57:00,
2013-05-12 01:02:00,63.4,62.0,29.73,SW,236,0.0,0.0,95,0.00,,RA,0.00,VWS V14.01,2013-05-12 05:02:00,
2013-05-12 01:07:00,63.1,61.7,29.73,SW,236,0.0,0.0,95,0.00,,RA,0.00,VWS V14.01,2013-05-12 05:07:00,
2013-05-12 01:12:00,63.0,61.5,29.74,WSW,250,3.0,7.0,95,0.00,,RA,0.00,VWS V14.01,2013-05-12 05:12:00,
2013-05-12 01:17:00,62.8,61.3,29.74,SW,221,4.0,7.0,95,0.00,,RA,0.00,VWS V14.01,2013-05-12 05:17:00,
2013-05-12 01:22:00,62.5,61.0,29.73,SSW,212,1.0,3.0,95,0.00,,RA,0.00,VWS V14.01,2013-05-12 05:22:00,
2013-05-12 01:27:00,62.5,61.3,29.73,SW,223,0.0,3.0,96,0.00,,RA,0.00,VWS V14.01,2013-05-12 05:27:00,
2013-05-12 01:32:00,62.5,61.3,29.72,SW,223,0.0,0.0,96,0.00,,RA,0.00,VWS V14.01,2013-05-12 05:32:00,
2013-05-12 01:37:00,62.5,61.3,29.71,SW,223,0.0,0.0,96,0.00,,RA,0.00,VWS V14.01,2013-05-12 05:37:00,
2013-05-12 01:42:00,62.5,61.3,29.72,SW,223,0.0,0.0,96,0.00,,RA,0.00,VWS V14.01,2013-05-12 05:42:00,
2013-05-12 01:47:00,62.5,61.3,29.72,SW,224,0.0,0.0,96,0.00,,RA,0.00,VWS V14.01,2013-05-12 05:47:00,
2013-05-12 01:52:00,62.4,61.2,29.72,SW,224,0.0,0.0,96,0.00,,RA,0.00,VWS V14.01,2013-05-12 05:52:00,
2013-05-12 01:57:00,62.3,61.2,29.71,SW,224,0.0,0.0,96,0.00,,RA,0.00,VWS V14.01,2013-05-12 05:57:00,
2013-05-12 02:02:00,62.2,61.0,29.71,SW,224,0.0,0.0,96,0.00,,RA,0.00,VWS V14.01,2013-05-12 06:02:00,
2013-05-12 02:07:00,62.0,60.8,29.71,SW,224,0.0,0.0,96,0.00,,RA,0.00,VWS V14.01,2013-05-12 06:07:00,
2013-05-12 02:12:00,62.0,60.8,29.71,SW,224,0.0,0.0,96,0.00,,RA,0.00,VWS V14.01,2013-05-12 06:12:00,
2013-05-12 02:17:00,62.0,60.8,29.72,SW,224,0.0,0.0,96,0.00,,RA,0.00,VWS V14.01,2013-05-12 06:17:00,
2013-05-12 02:22:00,62.0,60.8,29.72,SW,224,0.0,0.0,96,0.00,,RA,0.00,VWS V14.01,2013-05-12 06:22:00,
2013-05-12 02:27:00,62.0,60.8,29.71,SW,224,0.0,0.0,96,0.00,,RA,0.00,VWS V14.01,2013-05-12 06:27:00,
2013-05-12 02:32:00,62.0,60.8,29.72,SW,224,2.0,3.0,96,0.00,,RA,0.00,VWS V14.01,2013-05-12 06:32:00,
2013-05-12 02:37:00,62.0,60.8,29.72,West,275,4.0,4.0,96,0.00,,RA,0.00,VWS V14.01,2013-05-12 06:37:00,
2013-05-12 02:42:00,62.0,60.8,29.72,West,265,0.0,4.0,96,0.00,,-RA,0.00,VWS V14.01,2013-05-12 06:42:00,
2013-05-12 02:47:00,61.9,60.8,29.71,West,276,1.0,3.0,96,0.00,,-RA,0.00,VWS V14.01,2013-05-12 06:47:00,
2013-05-12 02:52:00,62.0,60.8,29.71,West,276,0.0,0.0,96,0.00,,-RA,0.00,VWS V14.01,2013-05-12 06:52:00,
2013-05-12 02:57:00,61.9,60.8,29.70,West,276,0.0,0.0,96,0.00,,-RA,0.00,VWS V14.01,2013-05-12 06:57:00,
2013-05-12 03:02:00,61.9,60.8,29.70,West,276,0.0,0.0,96,0.00,,OVC055,0.00,VWS V14.01,2013-05-12 07:02:00,
2013-05-12 03:07:00,61.9,60.8,29.70,West,276,0.0,2.0,96,0.00,,OVC055,0.00,VWS V14.01,2013-05-12 07:07:00,
2013-05-12 03:13:00,61.9,60.8,29.69,West,277,4.0,4.0,96,0.00,,OVC055,0.00,VWS V14.01,2013-05-12 07:13:00,
2013-05-12 03:18:00,62.0,60.8,29.70,WNW,282,3.0,5.0,96,0.00,,OVC055,0.00,VWS V14.01,2013-05-12 07:18:00,
2013-05-12 03:23:00,62.2,61.3,29.70,West,273,1.0,5.0,97,0.00,,OVC055,0.00,VWS V14.01,2013-05-12 07:23:00,
2013-05-12 03:28:00,62.4,61.5,29.71,West,269,6.0,6.0,97,0.00,,OVC055,0.00,VWS V14.01,2013-05-12 07:28:00,
2013-05-12 03:33:00,62.5,61.6,29.71,West,265,3.0,5.0,97,0.00,,OVC055,0.00,VWS V14.01,2013-05-12 07:33:00,
2013-05-12 03:38:00,62.7,61.8,29.72,West,276,3.0,4.0,97,0.00,,OVC055,0.00,VWS V14.01,2013-05-12 07:38:00,
2013-05-12 03:43:00,62.9,62.0,29.72,WNW,288,6.0,6.0,97,0.00,,SCT055,0.00,VWS V14.01,2013-05-12 07:43:00,
2013-05-12 03:48:00,63.0,62.1,29.72,West,281,0.0,2.0,97,0.00,,SCT055,0.00,VWS V14.01,2013-05-12 07:48:00,
2013-05-12 03:53:00,63.1,62.2,29.72,WNW,286,4.0,6.0,97,0.00,,SCT055,0.00,VWS V14.01,2013-05-12 07:53:00,
2013-05-12 03:58:00,63.0,61.8,29.72,West,281,3.0,5.0,96,0.00,,SCT055,0.00,VWS V14.01,2013-05-12 07:58:00,
2013-05-12 04:03:00,63.1,61.9,29.73,West,271,3.0,5.0,96,0.00,,SCT065,0.00,VWS V14.01,2013-05-12 08:03:00,
2013-05-12 04:08:00,63.1,61.9,29.73,West,267,3.0,4.0,96,0.00,,SCT065,0.00,VWS V14.01,2013-05-12 08:08:00,
2013-05-12 04:13:00,63.2,62.0,29.72,West,265,0.0,4.0,96,0.00,,SCT065,0.00,VWS V14.01,2013-05-12 08:13:00,
2013-05-12 04:18:00,63.1,61.9,29.72,West,281,0.0,3.0,96,0.00,,SCT065,0.00,VWS V14.01,2013-05-12 08:18:00,
2013-05-12 04:23:00,62.9,61.8,29.72,West,263,0.0,5.0,96,0.00,,SCT065,0.00,VWS V14.01,2013-05-12 08:23:00,
2013-05-12 04:28:00,62.7,61.2,29.73,West,275,0.0,4.0,95,0.00,,SCT065,0.00,VWS V14.01,2013-05-12 08:28:00,
2013-05-12 04:33:00,62.5,60.8,29.73,NW,317,6.0,7.0,94,0.00,,SCT065,0.00,VWS V14.01,2013-05-12 08:33:00,
2013-05-12 04:38:00,62.5,60.5,29.73,WNW,300,4.0,8.0,93,0.00,,SCT065,0.00,VWS V14.01,2013-05-12 08:38:00,
2013-05-12 04:43:00,62.5,60.5,29.73,WNW,294,0.0,4.0,93,0.00,,BKN065,0.00,VWS V14.01,2013-05-12 08:43:00,
2013-05-12 04:48:00,62.5,60.2,29.73,WNW,290,4.0,5.0,92,0.00,,BKN065,0.00,VWS V14.01,2013-05-12 08:48:00,
2013-05-12 04:53:00,62.5,60.2,29.73,West,268,0.0,7.0,92,0.00,,BKN065,0.00,VWS V14.01,2013-05-12 08:53:00,
2013-05-12 04:58:00,62.4,59.7,29.73,NNW,342,4.0,6.0,91,0.00,,BKN065,0.00,VWS V14.01,2013-05-12 08:58:00,
2013-05-12 05:03:00,62.3,59.3,29.74,NW,307,5.0,6.0,90,0.00,,BKN065,0.00,VWS V14.01,2013-05-12 09:03:00,
2013-05-12 05:08:00,62.3,59.0,29.74,NW,321,4.0,6.0,89,0.00,,BKN065,0.00,VWS V14.01,2013-05-12 09:08:00,
2013-05-12 05:13:00,62.2,58.3,29.74,NW,317,4.0,6.0,87,0.00,,BKN065,0.00,VWS V14.01,2013-05-12 09:13:00,
2013-05-12 05:18:00,62.2,58.0,29.74,WNW,294,6.0,9.0,86,0.00,,BKN065,0.00,VWS V14.01,2013-05-12 09:18:00,
2013-05-12 05:23:00,62.2,58.0,29.74,NNW,333,5.0,9.0,86,0.00,,BKN065,0.00,VWS V14.01,2013-05-12 09:23:00,
2013-05-12 05:28:00,62.2,57.3,29.74,NW,323,6.0,14.0,84,0.00,,BKN065,0.00,VWS V14.01,2013-05-12 09:28:00,
2013-05-12 05:33:00,62.1,56.2,29.74,NW,317,10.0,11.0,81,0.00,,BKN065,0.00,VWS V14.01,2013-05-12 09:33:00,
2013-05-12 05:38:00,62.0,56.1,29.75,NNW,334,6.0,9.0,81,0.00,,BKN065,0.00,VWS V14.01,2013-05-12 09:38:00,
2013-05-12 05:43:00,62.0,55.8,29.75,NNW,334,7.0,11.0,80,0.00,,BKN065,0.00,VWS V14.01,2013-05-12 09:43:00,
2013-05-12 05:48:00,62.0,55.4,29.75,NW,307,5.0,12.0,79,0.00,,BKN065,0.00,VWS V14.01,2013-05-12 09:48:00,
2013-05-12 05:53:00,62.0,55.8,29.75,NNW,329,6.0,13.0,80,0.00,,BKN065,0.00,VWS V14.01,2013-05-12 09:53:00,
2013-05-12 05:58:00,62.0,55.8,29.75,NNW,327,6.0,8.0,80,0.00,,BKN065,0.00,VWS V14.01,2013-05-12 09:58:00,
2013-05-12 06:03:00,62.0,56.1,29.75,North,350,4.0,6.0,81,0.00,,RA,0.00,VWS V14.01,2013-05-12 10:03:00,
2013-05-12 06:08:00,61.9,55.7,29.75,NNW,334,7.0,11.0,80,0.00,,RA,0.00,VWS V14.01,2013-05-12 10:08:00,
2013-05-12 06:13:00,61.8,55.9,29.75,WNW,295,5.0,14.0,81,0.00,,RA,0.00,VWS V14.01,2013-05-12 10:13:00,
2013-05-12 06:18:00,61.7,55.5,29.75,NW,317,8.0,14.0,80,0.00,,RA,0.00,VWS V14.01,2013-05-12 10:18:00,
2013-05-12 06:23:00,61.6,54.7,29.75,NNW,336,12.0,13.0,78,0.00,,RA,0.00,VWS V14.01,2013-05-12 10:23:00,
2013-05-12 06:28:00,61.6,54.7,29.75,NW,324,4.0,11.0,78,0.00,,RA,0.00,VWS V14.01,2013-05-12 10:28:00,
2013-05-12 06:33:00,61.4,54.5,29.76,NNW,341,9.0,13.0,78,0.00,,RA,0.00,VWS V14.01,2013-05-12 10:33:00,
2013-05-12 06:38:00,61.2,53.2,29.76,NW,323,8.0,18.0,75,0.00,,RA,0.00,VWS V14.01,2013-05-12 10:38:00,
2013-05-12 06:43:00,61.1,52.0,29.75,NW,312,12.0,15.0,72,0.00,,SCT080,0.00,VWS V14.01,2013-05-12 10:43:00,
2013-05-12 06:48:00,61.1,52.4,29.76,NNW,336,12.0,12.0,73,0.00,,SCT080,0.00,VWS V14.01,2013-05-12 10:48:00,
2013-05-12 06:54:00,61.0,51.9,29.76,NNW,344,4.0,12.0,72,0.00,,BKN075,0.00,VWS V14.01,2013-05-12 10:54:00,
2013-05-12 06:59:00,60.9,52.6,29.75,NNW,340,11.0,11.0,74,0.00,,BKN075,0.00,VWS V14.01,2013-05-12 10:59:00,
2013-05-12 07:04:00,60.9,52.6,29.75,NW,324,9.0,15.0,74,0.00,,BKN075,0.00,VWS V14.01,2013-05-12 11:04:00,
2013-05-12 07:09:00,60.8,52.5,29.76,NW,317,3.0,10.0,74,0.00,,BKN075,0.00,VWS V14.01,2013-05-12 11:09:00,
2013-05-12 07:14:00,60.7,52.4,29.75,NNW,328,15.0,15.0,74,0.00,,BKN075,0.00,VWS V14.01,2013-05-12 11:14:00,
2013-05-12 07:19:00,60.7,52.4,29.75,NW,325,6.0,10.0,74,0.00,,BKN075,0.00,VWS V14.01,2013-05-12 11:19:00,
2013-05-12 07:24:00,60.6,52.3,29.75,NW,326,6.0,12.0,74,0.00,,BKN075,0.00,VWS V14.01,2013-05-12 11:24:00,
2013-05-12 07:29:00,60.6,52.3,29.76,NW,307,4.0,7.0,74,0.00,,BKN075,0.00,VWS V14.01,2013-05-12 11:29:00,
2013-05-12 07:34:00,60.6,52.6,29.76,NW,325,4.0,7.0,75,0.00,,BKN075,0.00,VWS V14.01,2013-05-12 11:34:00,
2013-05-12 07:39:00,60.6,52.6,29.76,NNW,335,8.0,11.0,75,0.00,,BKN075,0.00,VWS V14.01,2013-05-12 11:39:00,
2013-05-12 07:44:00,60.6,52.3,29.76,NW,317,6.0,11.0,74,0.00,,OVC065,0.00,VWS V14.01,2013-05-12 11:44:00,
2013-05-12 07:49:00,60.6,52.3,29.76,NNW,335,12.0,12.0,74,0.00,,OVC065,0.00,VWS V14.01,2013-05-12 11:49:00,
2013-05-12 07:54:00,60.7,52.4,29.76,NNW,334,10.0,11.0,74,0.00,,OVC065,0.00,VWS V14.01,2013-05-12 11:54:00,
2013-05-12 07:59:00,60.7,52.4,29.76,NNW,331,4.0,9.0,74,0.00,,OVC065,0.00,VWS V14.01,2013-05-12 11:59:00,
2013-05-12 08:04:00,60.8,52.5,29.76,NNW,342,8.0,11.0,74,0.00,,OVC065,0.00,VWS V14.01,2013-05-12 12:04:00,
2013-05-12 08:09:00,61.0,53.0,29.76,NNW,331,8.0,11.0,75,0.00,,OVC065,0.00,VWS V14.01,2013-05-12 12:09:00,
2013-05-12 08:14:00,61.3,53.0,29.76,NNW,331,5.0,11.0,74,0.00,,OVC065,0.00,VWS V14.01,2013-05-12 12:14:00,
2013-05-12 08:19:00,61.7,53.7,29.77,NNW,343,6.0,10.0,75,0.00,,OVC065,0.00,VWS V14.01,2013-05-12 12:19:00,
2013-05-12 08:24:00,62.0,52.9,29.77,NNW,333,5.0,11.0,72,0.00,,OVC065,0.00,VWS V14.01,2013-05-12 12:24:00,
2013-05-12 08:29:00,62.0,53.3,29.77,NNW,327,6.0,6.0,73,0.00,,OVC065,0.00,VWS V14.01,2013-05-12 12:29:00,
2013-05-12 08:34:00,62.2,52.7,29.77,NW,317,6.0,8.0,71,0.00,,OVC065,0.00,VWS V14.01,2013-05-12 12:34:00,
2013-05-12 08:39:00,62.5,53.7,29.77,NNW,329,4.0,10.0,73,0.00,,OVC065,0.00,VWS V14.01,2013-05-12 12:39:00,
2013-05-12 08:44:00,62.6,53.1,29.78,WNW,302,3.0,7.0,71,0.00,,OVC065,0.00,VWS V14.01,2013-05-12 12:44:00,
2013-05-12 08:49:00,62.6,53.1,29.78,North,4,4.0,9.0,71,0.00,,OVC065,0.00,VWS V14.01,2013-05-12 12:49:00,
2013-05-12 08:54:00,62.7,53.5,29.78,NNW,327,6.0,9.0,72,0.00,,OVC065,0.00,VWS V14.01,2013-05-12 12:54:00,
2013-05-12 08:59:00,62.9,53.8,29.78,North,350,10.0,10.0,72,0.00,,OVC065,0.00,VWS V14.01,2013-05-12 12:59:00,
2013-05-12 09:04:00,62.8,53.7,29.78,NW,307,6.0,10.0,72,0.00,,OVC065,0.00,VWS V14.01,2013-05-12 13:04:00,
2013-05-12 09:09:00,62.8,54.0,29.78,North,351,6.0,11.0,73,0.00,,OVC065,0.00,VWS V14.01,2013-05-12 13:09:00,
2013-05-12 09:14:00,62.7,53.5,29.78,NNW,328,9.0,13.0,72,0.00,,OVC065,0.00,VWS V14.01,2013-05-12 13:14:00,
2013-05-12 09:19:00,62.7,54.3,29.78,NNW,328,8.0,11.0,74,0.00,,OVC065,0.00,VWS V14.01,2013-05-12 13:19:00,
2013-05-12 09:24:00,62.8,54.0,29.78,NW,317,11.0,12.0,73,0.00,,OVC065,0.00,VWS V14.01,2013-05-12 13:24:00,
2013-05-12 09:29:00,62.9,54.5,29.78,NW,317,9.0,12.0,74,0.00,,OVC065,0.00,VWS V14.01,2013-05-12 13:29:00,
2013-05-12 09:34:00,63.1,54.7,29.78,West,277,10.0,15.0,74,0.00,,OVC065,0.00,VWS V14.01,2013-05-12 13:34:00,
2013-05-12 09:39:00,63.1,54.7,29.78,WNW,300,7.0,15.0,74,0.00,,OVC065,0.00,VWS V14.01,2013-05-12 13:39:00,
2013-05-12 09:44:00,63.1,53.9,29.78,NW,312,7.0,17.0,72,0.00,,OVC065,0.00,VWS V14.01,2013-05-12 13:44:00,
2013-05-12 09:49:00,63.2,54.8,29.79,NW,324,14.0,19.0,74,0.00,,OVC065,0.00,VWS V14.01,2013-05-12 13:49:00,
2013-05-12 09:54:00,62.8,53.3,29.79,NNW,331,7.0,19.0,71,0.00,,BKN120,0.00,VWS V14.01,2013-05-12 13:54:00,
2013-05-12 09:59:00,62.9,53.8,29.79,NNW,329,13.0,13.0,72,0.00,,BKN120,0.00,VWS V14.01,2013-05-12 13:59:00,
2013-05-12 10:04:00,63.1,54.3,29.79,WNW,300,8.0,12.0,73,0.00,,BKN120,0.00,VWS V14.01,2013-05-12 14:04:00,
2013-05-12 10:09:00,63.1,53.9,29.79,WNW,296,15.0,15.0,72,0.00,,BKN120,0.00,VWS V14.01,2013-05-12 14:09:00,
2013-05-12 10:14:00,62.9,54.1,29.79,NW,317,7.0,12.0,73,0.00,,BKN120,0.00,VWS V14.01,2013-05-12 14:14:00,
2013-05-12 10:19:00,63.0,53.5,29.79,NNW,335,12.0,15.0,71,0.00,,BKN120,0.00,VWS V14.01,2013-05-12 14:19:00,
2013-05-12 10:24:00,62.7,52.0,29.79,NW,324,7.0,18.0,68,0.00,,BKN120,0.00,VWS V14.01,2013-05-12 14:24:00,
2013-05-12 10:29:00,62.8,52.1,29.79,NNW,338,10.0,12.0,68,0.00,,BKN120,0.00,VWS V14.01,2013-05-12 14:29:00,
2013-05-12 10:34:00,62.9,52.6,29.80,NW,307,11.0,13.0,69,0.00,,BKN120,0.00,VWS V14.01,2013-05-12 14:34:00,
2013-05-12 10:39:00,63.1,50.7,29.80,NNW,331,15.0,19.0,64,0.00,,BKN120,0.00,VWS V14.01,2013-05-12 14:39:00,
2013-05-12 10:44:00,62.9,48.8,29.80,West,271,5.0,16.0,60,0.00,,BKN040,0.00,VWS V14.01,2013-05-12 14:44:00,
2013-05-12 10:49:00,63.0,49.4,29.80,NNW,330,9.0,14.0,61,0.00,,BKN040,0.00,VWS V14.01,2013-05-12 14:49:00,
2013-05-12 10:54:00,63.1,49.0,29.80,NW,321,17.0,17.0,60,0.00,,BKN040,0.00,VWS V14.01,2013-05-12 14:54:00,
2013-05-12 10:59:00,62.8,48.3,29.80,NNW,329,10.0,13.0,59,0.00,,BKN040,0.00,VWS V14.01,2013-05-12 14:59:00,
2013-05-12 11:04:00,62.7,48.2,29.80,NNW,339,13.0,14.0,59,0.00,,BKN040,0.00,VWS V14.01,2013-05-12 15:04:00,
2013-05-12 11:09:00,62.7,48.2,29.80,NNW,337,10.0,14.0,59,0.00,,BKN040,0.00,VWS V14.01,2013-05-12 15:09:00,
2013-05-12 11:14:00,62.7,48.2,29.80,WNW,292,5.0,13.0,59,0.00,,BKN040,0.00,VWS V14.01,2013-05-12 15:14:00,
2013-05-12 11:19:00,62.6,48.5,29.80,NNW,336,17.0,18.0,60,0.00,,BKN040,0.00,VWS V14.01,2013-05-12 15:19:00,
2013-05-12 11:24:00,62.6,49.0,29.80,NNW,339,7.0,14.0,61,0.00,,BKN040,0.00,VWS V14.01,2013-05-12 15:24:00,
2013-05-12 11:29:00,62.6,47.2,29.81,NW,307,11.0,15.0,57,0.00,,BKN040,0.00,VWS V14.01,2013-05-12 15:29:00,
2013-05-12 11:34:00,62.6,49.0,29.81,WNW,290,11.0,16.0,61,0.00,,BKN040,0.00,VWS V14.01,2013-05-12 15:34:00,
2013-05-12 11:39:00,62.4,47.0,29.81,NNW,338,11.0,13.0,57,0.00,,BKN040,0.00,VWS V14.01,2013-05-12 15:39:00,
2013-05-12 11:44:00,62.4,48.3,29.81,NNW,329,13.0,18.0,60,0.00,,BKN040,0.00,VWS V14.01,2013-05-12 15:44:00,
2013-05-12 11:49:00,62.3,48.2,29.80,North,5,7.0,16.0,60,0.00,,BKN040,0.00,VWS V14.01,2013-05-12 15:49:00,
2013-05-12 11:54:00,62.3,48.7,29.81,NW,317,5.0,13.0,61,0.00,,BKN040,0.00,VWS V14.01,2013-05-12 15:54:00,
2013-05-12 11:59:00,62.4,47.0,29.81,NW,322,6.0,15.0,57,0.00,,BKN040,0.00,VWS V14.01,2013-05-12 15:59:00,
2013-05-12 12:04:00,62.3,46.4,29.80,NNW,327,6.0,17.0,56,0.00,,BKN040,0.00,VWS V14.01,2013-05-12 16:04:00,
2013-05-12 12:09:00,62.6,49.4,29.81,NW,321,7.0,9.0,62,0.00,,BKN040,0.00,VWS V14.01,2013-05-12 16:09:00,
2013-05-12 12:14:00,62.9,47.9,29.80,NNW,329,9.0,10.0,58,0.00,,BKN040,0.00,VWS V14.01,2013-05-12 16:14:00,
2013-05-12 12:19:00,63.1,48.1,29.80,WNW,285,8.0,14.0,58,0.00,,BKN040,0.00,VWS V14.01,2013-05-12 16:19:00,
2013-05-12 12:24:00,63.4,48.4,29.81,NNW,338,7.0,14.0,58,0.00,,BKN040,0.00,VWS V14.01,2013-05-12 16:24:00,
2013-05-12 12:29:00,63.5,48.5,29.81,West,275,6.0,11.0,58,0.00,,BKN040,0.00,VWS V14.01,2013-05-12 16:29:00,
2013-05-12 12:34:00,63.8,49.7,29.81,NNW,332,14.0,16.0,60,0.00,,BKN040,0.00,VWS V14.01,2013-05-12 16:34:00,
2013-05-12 12:39:00,63.9,48.8,29.81,WNW,285,1.0,10.0,58,0.00,,BKN040,0.00,VWS V14.01,2013-05-12 16:39:00,
2013-05-12 12:44:00,64.1,46.6,29.81,West,280,14.0,16.0,53,0.00,,SCT040,0.00,VWS V14.01,2013-05-12 16:44:00,
2013-05-12 12:49:00,63.2,44.8,29.80,West,279,10.0,15.0,51,0.00,,SCT040,0.00,VWS V14.01,2013-05-12 16:49:00,
2013-05-12 12:54:00,62.5,45.7,29.81,WNW,298,6.0,10.0,54,0.00,,SCT040,0.00,VWS V14.01,2013-05-12 16:54:00,
2013-05-12 12:59:00,62.6,46.7,29.81,NW,307,13.0,15.0,56,0.00,,SCT040,0.00,VWS V14.01,2013-05-12 16:59:00,
2013-05-12 13:04:00,62.7,46.3,29.81,NNW,339,13.0,13.0,55,0.00,,SCT040,0.00,VWS V14.01,2013-05-12 17:04:00,
2013-05-12 13:09:00,62.9,47.9,29.81,West,281,5.0,16.0,58,0.00,,SCT040,0.00,VWS V14.01,2013-05-12 17:09:00,
2013-05-12 13:14:00,62.9,47.0,29.81,WNW,302,12.0,14.0,56,0.00,,SCT040,0.00,VWS V14.01,2013-05-12 17:14:00,
2013-05-12 13:19:00,62.3,46.0,29.81,NNW,346,9.0,13.0,55,0.00,,SCT040,0.00,VWS V14.01,2013-05-12 17:19:00,
2013-05-12 13:24:00,61.9,45.6,29.81,NW,307,6.0,13.0,55,0.00,,SCT040,0.00,VWS V14.01,2013-05-12 17:24:00,
2013-05-12 13:29:00,62.1,48.5,29.82,NW,307,6.0,10.0,61,0.00,,SCT040,0.00,VWS V14.01,2013-05-12 17:29:00,
2013-05-12 13:34:00,62.6,49.8,29.81,NW,323,11.0,14.0,63,0.00,,SCT040,0.00,VWS V14.01,2013-05-12 17:34:00,
2013-05-12 13:39:00,63.0,46.6,29.82,North,351,9.0,15.0,55,0.00,,SCT040,0.00,VWS V14.01,2013-05-12 17:39:00,
2013-05-12 13:44:00,63.2,46.8,29.82,WNW,294,11.0,15.0,55,0.00,,BKN040,0.00,VWS V14.01,2013-05-12 17:44:00,
2013-05-12 13:49:00,63.2,46.8,29.82,WNW,294,11.0,15.0,55,0.00,,BKN040,0.00,VWS V14.01,2013-05-12 17:49:00,
2013-05-12 13:54:00,63.3,44.9,29.82,NW,325,12.0,18.0,51,0.00,,BKN040,0.00,VWS V14.01,2013-05-12 17:54:00,
2013-05-12 13:59:00,63.1,46.2,29.82,NW,325,7.0,17.0,54,0.00,,BKN040,0.00,VWS V14.01,2013-05-12 17:59:00,
2013-05-12 14:04:00,63.1,45.7,29.82,NNW,334,13.0,18.0,53,0.00,,BKN040,0.00,VWS V14.01,2013-05-12 18:04:00,
2013-05-12 14:09:00,63.1,45.2,29.82,NW,307,8.0,15.0,52,0.00,,BKN040,0.00,VWS V14.01,2013-05-12 18:09:00,
2013-05-12 14:14:00,63.2,44.8,29.82,NNW,348,6.0,15.0,51,0.00,,BKN040,0.00,VWS V14.01,2013-05-12 18:14:00,
2013-05-12 14:19:00,62.9,43.5,29.82,WSW,254,8.0,17.0,49,0.00,,BKN040,0.00,VWS V14.01,2013-05-12 18:19:00,
2013-05-12 14:24:00,63.0,41.9,29.83,NW,317,14.0,14.0,46,0.00,,BKN040,0.00,VWS V14.01,2013-05-12 18:24:00,
2013-05-12 14:29:00,62.9,41.8,29.83,NW,317,13.0,16.0,46,0.00,,BKN040,0.00,VWS V14.01,2013-05-12 18:29:00,
2013-05-12 14:34:00,62.9,42.4,29.83,NW,307,9.0,17.0,47,0.00,,BKN040,0.00,VWS V14.01,2013-05-12 18:34:00,
2013-05-12 14:39:00,63.0,40.8,29.83,West,269,19.0,19.0,44,0.00,,BKN040,0.00,VWS V14.01,2013-05-12 18:39:00,
2013-05-12 14:44:00,63.0,41.3,29.83,WNW,293,12.0,17.0,45,0.00,,SCT055,0.00,VWS V14.01,2013-05-12 18:44:00,
2013-05-12 14:49:00,63.0,40.8,29.82,West,275,10.0,12.0,44,0.00,,SCT055,0.00,VWS V14.01,2013-05-12 18:49:00,
2013-05-12 14:54:00,63.0,42.5,29.83,NNE,19,15.0,16.0,47,0.00,,SCT055,0.00,VWS V14.01,2013-05-12 18:54:00,
2013-05-12 14:59:00,63.2,41.5,29.83,NNW,327,12.0,13.0,45,0.00,,SCT055,0.00,VWS V14.01,2013-05-12 18:59:00,
2013-05-12 15:04:00,63.2,40.3,29.83,WNW,291,10.0,18.0,43,0.00,,SCT055,0.00,VWS V14.01,2013-05-12 19:04:00,
2013-05-12 15:09:00,63.2,41.0,29.83,WNW,298,13.0,16.0,44,0.00,,SCT055,0.00,VWS V14.01,2013-05-12 19:09:00,
2013-05-12 15:14:00,63.3,41.0,29.83,WNW,290,12.0,13.0,44,0.00,,SCT055,0.00,VWS V14.01,2013-05-12 19:14:00,
2013-05-12 15:19:00,63.5,41.2,29.82,NNW,334,13.0,17.0,44,0.00,,SCT055,0.00,VWS V14.01,2013-05-12 19:19:00,
2013-05-12 15:24:00,63.5,41.2,29.82,West,269,11.0,14.0,44,0.00,,SCT055,0.00,VWS V14.01,2013-05-12 19:24:00,
2013-05-12 15:29:00,63.7,42.0,29.82,WNW,295,7.0,12.0,45,0.00,,SCT055,0.00,VWS V14.01,2013-05-12 19:29:00,
2013-05-12 15:35:00,63.8,42.1,29.82,NW,325,12.0,15.0,45,0.00,,SCT055,0.00,VWS V14.01,2013-05-12 19:35:00,
2013-05-12 15:40:00,63.6,41.3,29.82,West,272,12.0,13.0,44,0.00,,SCT055,0.00,VWS V14.01,2013-05-12 19:40:00,
2013-05-12 15:45:00,63.6,40.1,29.82,WNW,296,10.0,12.0,42,0.00,,SCT055,0.00,VWS V14.01,2013-05-12 19:45:00,
2013-05-12 15:50:00,63.8,42.1,29.82,NNW,330,10.0,13.0,45,0.00,,SCT055,0.00,VWS V14.01,2013-05-12 19:50:00,
2013-05-12 15:55:00,63.6,39.5,29.83,NNW,332,9.0,18.0,41,0.00,,SCT055,0.00,VWS V14.01,2013-05-12 19:55:00,
2013-05-12 16:00:00,63.5,41.2,29.83,NW,307,13.0,14.0,44,0.00,,SCT055,0.00,VWS V14.01,2013-05-12 20:00:00,
2013-05-12 16:05:00,63.5,40.6,29.82,NNW,340,12.0,13.0,43,0.00,,SCT055,0.00,VWS V14.01,2013-05-12 20:05:00,
2013-05-12 16:10:00,63.6,40.1,29.83,West,262,8.0,14.0,42,0.00,,SCT055,0.00,VWS V14.01,2013-05-12 20:10:00,
2013-05-12 16:15:00,63.6,41.3,29.83,NW,307,6.0,13.0,44,0.00,,SCT055,0.00,VWS V14.01,2013-05-12 20:15:00,
2013-05-12 16:20:00,63.7,40.2,29.83,West,265,7.0,14.0,42,0.00,,SCT055,0.00,VWS V14.01,2013-05-12 20:20:00,
2013-05-12 16:25:00,63.8,39.0,29.83,NW,307,9.0,12.0,40,0.00,,SCT055,0.00,VWS V14.01,2013-05-12 20:25:00,
2013-05-12 16:30:00,63.8,39.0,29.83,North,349,9.0,16.0,40,0.00,,SCT055,0.00,VWS V14.01,2013-05-12 20:30:00,
2013-05-12 16:35:00,63.8,41.5,29.83,NW,312,3.0,19.0,44,0.00,,SCT055,0.00,VWS V14.01,2013-05-12 20:35:00,
2013-05-12 16:40:00,63.9,39.8,29.83,NW,321,8.0,14.0,41,0.00,,SCT055,0.00,VWS V14.01,2013-05-12 20:40:00,
2013-05-12 16:45:00,63.8,39.0,29.83,NNW,347,7.0,14.0,40,0.00,,SCT055,0.00,VWS V14.01,2013-05-12 20:45:00,
2013-05-12 16:50:00,63.7,39.0,29.83,NW,307,7.0,15.0,40,0.00,,SCT055,0.00,VWS V14.01,2013-05-12 20:50:00,
2013-05-12 16:55:00,63.8,39.7,29.83,NW,312,17.0,17.0,41,0.00,,SCT055,0.00,VWS V14.01,2013-05-12 20:55:00,
2013-05-12 17:00:00,63.7,37.6,29.83,WNW,299,15.0,17.0,38,0.00,,SCT055,0.00,VWS V14.01,2013-05-12 21:00:00,
2013-05-12 17:05:00,63.8,39.7,29.84,NW,307,14.0,15.0,41,0.00,,FEW055,0.00,VWS V14.01,2013-05-12 21:05:00,
2013-05-12 17:10:00,63.8,39.0,29.84,WNW,282,15.0,15.0,40,0.00,,FEW055,0.00,VWS V14.01,2013-05-12 21:10:00,
2013-05-12 17:15:00,63.6,39.5,29.84,WNW,298,12.0,13.0,41,0.00,,FEW055,0.00,VWS V14.01,2013-05-12 21:15:00,
2013-05-12 17:20:00,63.6,38.9,29.84,NW,312,12.0,12.0,40,0.00,,FEW055,0.00,VWS V14.01,2013-05-12 21:20:00,
2013-05-12 17:25:00,63.4,39.3,29.84,NNW,338,11.0,20.0,41,0.00,,FEW055,0.00,VWS V14.01,2013-05-12 21:25:00,
2013-05-12 17:30:00,63.5,39.4,29.84,WNW,290,12.0,18.0,41,0.00,,FEW055,0.00,VWS V14.01,2013-05-12 21:30:00,
2013-05-12 17:35:00,63.4,38.7,29.84,NW,307,11.0,17.0,40,0.00,,FEW055,0.00,VWS V14.01,2013-05-12 21:35:00,
2013-05-12 17:40:00,63.3,38.6,29.84,NNW,329,11.0,14.0,40,0.00,,FEW055,0.00,VWS V14.01,2013-05-12 21:40:00,
2013-05-12 17:45:00,63.3,40.5,29.84,NNW,340,14.0,15.0,43,0.00,,FEW055,0.00,VWS V14.01,2013-05-12 21:45:00,
2013-05-12 17:50:00,63.2,39.8,29.84,NW,317,12.0,17.0,42,0.00,,FEW055,0.00,VWS V14.01,2013-05-12 21:50:00,
2013-05-12 17:55:00,63.2,39.1,29.84,NNW,328,12.0,16.0,41,0.00,,FEW055,0.00,VWS V14.01,2013-05-12 21:55:00,
2013-05-12 18:00:00,63.1,39.0,29.84,NNW,341,6.0,14.0,41,0.00,,FEW055,0.00,VWS V14.01,2013-05-12 22:00:00,
2013-05-12 18:05:00,63.0,38.3,29.84,NNW,333,11.0,21.0,40,0.00,,FEW055,0.00,VWS V14.01,2013-05-12 22:05:00,
2013-05-12 18:10:00,62.8,39.4,29.84,NNW,332,18.0,18.0,42,0.00,,FEW055,0.00,VWS V14.01,2013-05-12 22:10:00,
2013-05-12 18:15:00,62.7,38.7,29.84,West,278,7.0,17.0,41,0.00,,FEW055,0.00,VWS V14.01,2013-05-12 22:15:00,
2013-05-12 18:20:00,62.8,40.0,29.85,WNW,300,6.0,15.0,43,0.00,,FEW055,0.00,VWS V14.01,2013-05-12 22:20:00,
2013-05-12 18:25:00,62.8,39.4,29.85,NNW,329,7.0,10.0,42,0.00,,FEW055,0.00,VWS V14.01,2013-05-12 22:25:00,
2013-05-12 18:30:00,62.6,39.2,29.85,NNW,332,13.0,16.0,42,0.00,,FEW055,0.00,VWS V14.01,2013-05-12 22:30:00,
2013-05-12 18:35:00,62.3,38.9,29.85,NNW,339,16.0,20.0,42,0.00,,FEW055,0.00,VWS V14.01,2013-05-12 22:35:00,
2013-05-12 18:40:00,62.1,37.5,29.86,WNW,291,12.0,16.0,40,0.00,,FEW060,0.00,VWS V14.01,2013-05-12 22:40:00,
2013-05-12 18:45:00,62.0,38.7,29.86,NNW,336,11.0,16.0,42,0.00,,FEW060,0.00,VWS V14.01,2013-05-12 22:45:00,
2013-05-12 18:50:00,61.9,38.0,29.86,WNW,303,12.0,16.0,41,0.00,,FEW060,0.00,VWS V14.01,2013-05-12 22:50:00,
2013-05-12 18:55:00,61.7,39.6,29.86,NW,312,5.0,14.0,44,0.00,,FEW060,0.00,VWS V14.01,2013-05-12 22:55:00,
2013-05-12 19:00:00,61.6,38.3,29.87,NW,324,9.0,13.0,42,0.00,,FEW060,0.00,VWS V14.01,2013-05-12 23:00:00,
2013-05-12 19:05:00,61.4,38.7,29.87,NNW,327,11.0,18.0,43,0.00,,FEW060,0.00,VWS V14.01,2013-05-12 23:05:00,
2013-05-12 19:10:00,61.3,39.2,29.87,NNW,338,10.0,18.0,44,0.00,,FEW060,0.00,VWS V14.01,2013-05-12 23:10:00,
2013-05-12 19:15:00,61.1,37.2,29.87,WNW,296,14.0,19.0,41,0.00,,FEW060,0.00,VWS V14.01,2013-05-12 23:15:00,
2013-05-12 19:20:00,61.0,37.2,29.88,NNW,329,12.0,16.0,41,0.00,,FEW060,0.00,VWS V14.01,2013-05-12 23:20:00,
2013-05-12 19:25:00,60.8,38.2,29.88,NW,312,9.0,14.0,43,0.00,,FEW060,0.00,VWS V14.01,2013-05-12 23:25:00,
2013-05-12 19:30:00,60.7,37.5,29.88,NNW,333,3.0,12.0,42,0.00,,FEW060,0.00,VWS V14.01,2013-05-12 23:30:00,
2013-05-12 19:35:00,60.5,37.9,29.89,NNW,332,9.0,12.0,43,0.00,,FEW060,0.00,VWS V14.01,2013-05-12 23:35:00,
2013-05-12 19:40:00,60.3,37.1,29.89,NW,321,14.0,14.0,42,0.00,,SKC,0.00,VWS V14.01,2013-05-12 23:40:00,
2013-05-12 19:45:00,60.2,38.2,29.89,NNW,338,7.0,15.0,44,0.00,,SKC,0.00,VWS V14.01,2013-05-12 23:45:00,
2013-05-12 19:50:00,59.9,36.2,29.89,NW,317,9.0,17.0,41,0.00,,SKC,0.00,VWS V14.01,2013-05-12 23:50:00,
2013-05-12 19:55:00,59.8,37.3,29.89,WNW,294,9.0,14.0,43,0.00,,SKC,0.00,VWS V14.01,2013-05-12 23:55:00,
2013-05-12 20:00:00,59.6,37.1,29.89,WNW,301,10.0,15.0,43,0.00,,SKC,0.00,VWS V14.01,2013-05-13 00:00:00,
2013-05-12 20:05:00,59.5,35.8,29.90,NW,307,7.0,15.0,41,0.00,,SKC,0.00,VWS V14.01,2013-05-13 00:05:00,
2013-05-12 20:10:00,59.3,36.8,29.90,NW,317,9.0,15.0,43,0.00,,SKC,0.00,VWS V14.01,2013-05-13 00:10:00,
2013-05-12 20:15:00,59.2,35.5,29.90,WNW,297,10.0,14.0,41,0.00,,SKC,0.00,VWS V14.01,2013-05-13 00:15:00,
2013-05-12 20:20:00,59.2,36.7,29.91,NW,322,8.0,11.0,43,0.00,,SKC,0.00,VWS V14.01,2013-05-13 00:20:00,
2013-05-12 20:25:00,59.0,36.0,29.91,NNW,328,5.0,15.0,42,0.00,,SKC,0.00,VWS V14.01,2013-05-13 00:25:00,
2013-05-12 20:30:00,59.0,36.0,29.91,WNW,299,13.0,13.0,42,0.00,,SKC,0.00,VWS V14.01,2013-05-13 00:30:00,
2013-05-12 20:35:00,58.9,35.9,29.91,NW,323,11.0,15.0,42,0.00,,SKC,0.00,VWS V14.01,2013-05-13 00:35:00,
2013-05-12 20:40:00,58.8,35.2,29.92,NNW,334,6.0,15.0,41,0.00,,SKC,0.00,VWS V14.01,2013-05-13 00:40:00,
2013-05-12 20:45:00,58.7,35.7,29.92,WNW,283,6.0,15.0,42,0.00,,SKC,0.00,VWS V14.01,2013-05-13 00:45:00,
2013-05-12 20:50:00,58.6,35.6,29.92,WNW,298,14.0,15.0,42,0.00,,SKC,0.00,VWS V14.01,2013-05-13 00:50:00,
2013-05-12 20:55:00,58.6,36.2,29.92,West,280,14.0,16.0,43,0.00,,SKC,0.00,VWS V14.01,2013-05-13 00:55:00,
2013-05-12 21:00:00,58.6,36.2,29.92,NNW,336,10.0,15.0,43,0.00,,SKC,0.00,VWS V14.01,2013-05-13 01:00:00,
2013-05-12 21:05:00,58.5,34.9,29.93,WNW,290,5.0,15.0,41,0.00,,SKC,0.00,VWS V14.01,2013-05-13 01:05:00,
2013-05-12 21:10:00,58.5,35.5,29.93,NW,317,9.0,16.0,42,0.00,,SKC,0.00,VWS V14.01,2013-05-13 01:10:00,
2013-05-12 21:15:00,58.4,36.6,29.93,West,278,7.0,13.0,44,0.00,,SKC,0.00,VWS V14.01,2013-05-13 01:15:00,
2013-05-12 21:20:00,58.2,35.2,29.94,NNW,329,7.0,16.0,42,0.00,,SKC,0.00,VWS V14.01,2013-05-13 01:20:00,
2013-05-12 21:25:00,58.2,35.2,29.94,NW,307,7.0,17.0,42,0.00,,SKC,0.00,VWS V14.01,2013-05-13 01:25:00,
2013-05-12 21:30:00,58.1,36.3,29.94,WNW,298,8.0,16.0,44,0.00,,SKC,0.00,VWS V14.01,2013-05-13 01:30:00,
2013-05-12 21:35:00,58.0,35.7,29.95,NW,317,6.0,15.0,43,0.00,,SKC,0.00,VWS V14.01,2013-05-13 01:35:00,
2013-05-12 21:40:00,57.9,36.1,29.95,NNW,340,5.0,12.0,44,0.00,,SKC,0.00,VWS V14.01,2013-05-13 01:40:00,
2013-05-12 21:45:00,57.9,36.1,29.95,NW,307,12.0,16.0,44,0.00,,SKC,0.00,VWS V14.01,2013-05-13 01:45:00,
2013-05-12 21:50:00,57.8,36.6,29.96,NW,307,3.0,14.0,45,0.00,,SKC,0.00,VWS V14.01,2013-05-13 01:50:00,
2013-05-12 21:55:00,57.7,36.0,29.96,WNW,299,7.0,11.0,44,0.00,,SKC,0.00,VWS V14.01,2013-05-13 01:55:00,
2013-05-12 22:00:00,57.7,35.4,29.96,WNW,298,8.0,11.0,43,0.00,,SKC,0.00,VWS V14.01,2013-05-13 02:00:00,
2013-05-12 22:05:00,57.6,34.7,29.96,North,349,13.0,19.0,42,0.00,,SKC,0.00,VWS V14.01,2013-05-13 02:05:00,
2013-05-12 22:10:00,57.6,35.3,29.97,WNW,290,11.0,11.0,43,0.00,,SKC,0.00,VWS V14.01,2013-05-13 02:10:00,
2013-05-12 22:15:00,57.5,36.3,29.97,WNW,292,10.0,13.0,45,0.00,,SKC,0.00,VWS V14.01,2013-05-13 02:15:00,
2013-05-12 22:20:00,57.3,35.0,29.97,WNW,293,10.0,15.0,43,0.00,,SKC,0.00,VWS V14.01,2013-05-13 02:20:00,
2013-05-12 22:25:00,57.4,34.5,29.97,NNW,336,7.0,12.0,42,0.00,,SKC,0.00,VWS V14.01,2013-05-13 02:25:00,
2013-05-12 22:30:00,57.3,35.0,29.97,West,277,11.0,13.0,43,0.00,,SKC,0.00,VWS V14.01,2013-05-13 02:30:00,
2013-05-12 22:35:00,57.2,35.5,29.98,NW,307,9.0,14.0,44,0.00,,SKC,0.00,VWS V14.01,2013-05-13 02:35:00,
2013-05-12 22:40:00,57.0,35.3,29.98,NW,312,11.0,12.0,44,0.00,,SKC,0.00,VWS V14.01,2013-05-13 02:40:00,
2013-05-12 22:45:00,56.9,36.3,29.98,WNW,292,10.0,11.0,46,0.00,,SKC,0.00,VWS V14.01,2013-05-13 02:45:00,
2013-05-12 22:50:00,56.8,36.3,29.98,NW,323,10.0,10.0,46,0.00,,SKC,0.00,VWS V14.01,2013-05-13 02:50:00,
2013-05-12 22:55:00,56.7,35.0,29.98,WNW,282,7.0,14.0,44,0.00,,SKC,0.00,VWS V14.01,2013-05-13 02:55:00,
2013-05-12 23:00:00,56.7,36.2,29.98,WNW,288,5.0,11.0,46,0.00,,SKC,0.00,VWS V14.01,2013-05-13 03:00:00,
2013-05-12 23:05:00,56.6,36.1,29.98,NW,307,10.0,12.0,46,0.00,,SKC,0.00,VWS V14.01,2013-05-13 03:05:00,
2013-05-12 23:10:00,56.6,36.6,29.98,West,275,4.0,10.0,47,0.00,,SKC,0.00,VWS V14.01,2013-05-13 03:10:00,
2013-05-12 23:15:00,56.4,37.0,29.98,WNW,296,12.0,12.0,48,0.00,,SKC,0.00,VWS V14.01,2013-05-13 03:15:00,
2013-05-12 23:20:00,56.3,36.9,29.98,NNW,344,7.0,14.0,48,0.00,,SKC,0.00,VWS V14.01,2013-05-13 03:20:00,
2013-05-12 23:25:00,56.3,37.4,29.98,NW,307,16.0,16.0,49,0.00,,SKC,0.00,VWS V14.01,2013-05-13 03:25:00,
2013-05-12 23:30:00,56.5,36.0,29.98,NW,312,12.0,18.0,46,0.00,,SKC,0.00,VWS V14.01,2013-05-13 03:30:00,
2013-05-12 23:35:00,56.6,36.1,29.98,NW,312,12.0,20.0,46,0.00,,SKC,0.00,VWS V14.01,2013-05-13 03:35:00,
2013-05-12 23:40:00,56.6,35.5,29.98,WNW,290,9.0,17.0,45,0.00,,CLR,0.00,VWS V14.01,2013-05-13 03:40:00,
2013-05-12 23:45:00,56.6,36.6,29.99,NW,307,12.0,20.0,47,0.00,,CLR,0.00,VWS V14.01,2013-05-13 03:45:00,
2013-05-12 23:50:00,56.6,35.5,29.99,NW,321,14.0,20.0,45,0.00,,CLR,0.00,VWS V14.01,2013-05-13 03:50:00,
2013-05-12 23:55:00,56.4,35.9,29.99,NNW,333,10.0,16.0,46,0.00,,CLR,0.00,VWS V14.01,2013-05-13 03:55:00,